Location: Mattos
(37.5460°N, 122.0175°W)
Time: 10:01:15
(UTC+00:00)

Daily predictions for brighter satellites

Satellite Brightness Start Highest point End
(mag) Time Altitude Azimuth Time Altitude Azimuth Time Altitude Azimuth
H-2A R/B 3.4 12:06:22 14° SW 12:08:20 21° W 12:11:05 10° NW
Cosmos 1733 Rocket 3.4 12:04:30 10° N 12:08:48 67° E 12:13:04 10° SSE
Cosmos 923 Rocket 4.1 12:08:24 10° SSW 12:13:42 87° WNW 12:19:02 10° NNE
Cosmos 1603 4.2 12:08:26 10° NW 12:13:43 39° WSW 12:18:58 10° S
Cosmos 1812 1.0 12:13:52 10° NNW 12:15:31 40° W 12:17:09 10° S
Cosmos 2341 Rocket 4.2 12:13:29 10° N 12:19:52 84° E 12:26:10 10° S
CZ-2C R/B 2.6 12:16:48 10° NNE 12:21:20 67° ESE 12:25:50 10° S
Cosmos 1943 Rocket 3.2 12:20:17 10° S 12:25:39 48° ESE 12:31:05 10° NE
Atlas Centaur 2 3.4 12:18:48 10° W 12:26:07 46° S 12:33:50 10° ESE
USA 281 4.2 12:23:30 10° SSW 12:28:36 24° WSW 12:33:44 10° NW
SL-8 Rocket 4.0 12:25:17 10° N 12:31:30 75° W 12:37:38 10° S
Cosmos 2218 Rocket 4.1 12:26:04 10° N 12:32:29 89° W 12:38:53 10° S
Tiangong -1.7 12:29:37 10° W 12:32:37 42° SSW 12:35:38 10° SE
